Flag for Norway Weather past 2 weeks in Melhus, Norway

Now
50 °F

Light rain. Partly sunny.


Feels Like: 44 °F
Forecast: 40 / 51 °F
Wind: 16 mph from Northwest

Location: Trondheim / Vaernes

Current Time: Sep 21, 2014 at 12:26:38 PM

Latest Report: Sep 21, 2014 at 11:50 AM


Visibility: N/A

Pressure: 29.89 "Hg

Humidity: 82%

Dew point: 45 °F

Location of MelhusLocation

Historic Weather in Melhus — Graph

°F

Melhus temperature yesterday

Maximum temperature yesterday: 57 °F (at 12:50 PM)
Minimum temperature yesterday: 43 °F (at 6:50 AM)
Average temperature yesterday: 50 °F

Past Weeks' High & Low Weather Summary

 TemperatureHumidityPressure
High77 °F (Sep 7, 4:20 PM)100% (Sep 9, 11:20 AM)30.51 "Hg (Sep 9, 11:20 AM)
Low41 °F (Sep 15, 6:50 AM)42% (Sep 7, 4:20 PM)29.77 "Hg (Sep 21, 8:50 AM)
Average55 °F82%30.15 "Hg
* Reported Sep 6 11:20 AM — Sep 21 11:20 AM, Melhus, Weather by CustomWeather, © 2014

Note: Actual official high and low records may vary slightly from our data, if they occured in-between our weather recording intervals... More about our weather records

Advertising

Melhus weather history for previous 24 hours

 ConditionsComfort  
Time TempWeatherWind HumidityBarometerVisibility
11:20 AM
Sep 21
52 °FDrizzle. Partly sunny.18 mph82%29.86 "HgN/A
10:50 AM52 °FBroken clouds.20 mph82%29.83 "HgN/A
10:20 AM54 °FBroken clouds.20 mph82%29.83 "HgN/A
9:50 AM54 °FLight rain. Broken clouds.21 mph88%29.80 "HgN/A
9:20 AM54 °FLight rain. Broken clouds.17 mph88%29.80 "HgN/A
8:50 AM54 °FScattered showers. Broken clouds.15 mph88%29.77 "HgN/A
8:20 AM52 °FScattered showers. Broken clouds.14 mph88%29.80 "HgN/A
7:50 AM52 °FSleet. Passing clouds.13 mph88%29.80 "HgN/A
7:20 AM54 °FPassing clouds.14 mph77%29.80 "HgN/A
6:50 AM54 °FPassing clouds.15 mph77%29.80 "HgN/A
6:20 AM54 °FPartly cloudy.13 mph77%29.80 "HgN/A
5:50 AM54 °FPassing clouds.13 mph82%29.80 "HgN/A
5:20 AM54 °FPassing clouds.14 mph82%29.80 "HgN/A
4:50 AM54 °FPassing clouds.14 mph82%29.83 "HgN/A
4:20 AM54 °FPassing clouds.14 mph82%29.83 "HgN/A
3:50 AM54 °FPassing clouds.13 mph82%29.83 "HgN/A
3:20 AM54 °FPassing clouds.13 mph82%29.83 "HgN/A
2:50 AM50 °FPassing clouds.9 mph94%29.83 "HgN/A
2:20 AM50 °FPassing clouds.3 mph94%29.83 "HgN/A
1:50 AM50 °FPassing clouds.3 mph94%29.83 "HgN/A
1:20 AM50 °FPassing clouds.3 mph94%29.83 "HgN/A
12:50 AM50 °FPassing clouds.2 mph94%29.83 "HgN/A
12:20 AM50 °FPassing clouds.5 mph94%29.83 "HgN/A
11:50 PM
Sep 20
50 °FPassing clouds.5 mph94%29.83 "HgN/A
11:20 PM50 °FPartly cloudy.5 mph94%29.86 "HgN/A
10:20 PM50 °FPassing clouds.3 mph94%29.86 "HgN/A
9:50 PM52 °FPassing clouds.1 mph88%29.86 "HgN/A
9:20 PM52 °FPartly cloudy.2 mph94%29.86 "HgN/A
8:50 PM52 °FPartly cloudy.2 mph88%29.86 "HgN/A
8:20 PM54 °FScattered clouds.3 mph88%29.86 "HgN/A
7:50 PM54 °FBroken clouds.5 mph88%29.83 "HgN/A
3:20 PM55 °FPartly sunny.9 mph82%29.83 "HgN/A
2:50 PM55 °FDrizzle. Partly sunny.10 mph82%29.83 "HgN/A
2:20 PM55 °FDrizzle. Partly sunny.12 mph82%29.83 "HgN/A
1:50 PM55 °FSunny.12 mph77%29.83 "Hg10 mi
1:20 PM55 °FSunny.12 mph77%29.83 "Hg10 mi
12:50 PM57 °FSunny.6 mph72%29.83 "Hg10 mi
12:20 PM55 °FSunny.2 mph77%29.83 "Hg10 mi
Weather by CustomWeather, © 2014

See weather overviewHow to use our weather pages